PORT of CASTELLON

Państwo: Spain Państwo: Spain (ES)
Szerokość/długość geograficzna: 39.967005° / 0.020405295° Pokaż mapę Pokaż mapę
Czas lokalny:  UTC +2
UN/LOCODE: ESCAS
Statki obecnie w Porcie: 13
Oczekiwane przybicie: 7

Najnowsze przybicia i odpłynięcia


Nazwy statków
Przybicie (UTC)
Przybicie (LT)
Odpływa (UTC)
Odpływa (LT)
Vessel Type: Rybołówstwo  LILLA GROSSA 2014-09-02 12:07:00 2014-09-02 14:07:00 2014-09-03 04:00:00 2014-09-03 06:00:00
Vessel Type: Rybołówstwo  EL PARAISO 2014-09-01 11:47:00 2014-09-01 13:47:00 2014-09-03 03:54:00 2014-09-03 05:54:00
Vessel Type: Rybołówstwo  FRANCISCO Y MILAGROS 2014-09-01 04:09:00 2014-09-01 06:09:00 2014-09-02 21:12:00 2014-09-02 23:12:00
Vessel Type: Statki transportowe  CARIBANA EXPRESS 2014-08-30 18:53:00 2014-08-30 20:53:00 2014-09-02 20:50:00 2014-09-02 22:50:00
Vessel Type: Rybołówstwo  SANT JAUME PRIMERO 2014-09-02 06:07:00 2014-09-02 08:07:00 2014-09-02 20:45:00 2014-09-02 22:45:00
Vessel Type: Holownik, Pilot itp.  PILOT TWO-CASTELLON 2014-09-02 20:39:00 2014-09-02 22:39:00
Vessel Type: Holownik, Pilot itp.  PILOT ONE-CASTELLON 2014-09-02 19:59:00 2014-09-02 21:59:00 2014-09-02 20:26:00 2014-09-02 22:26:00
Vessel Type: Statki transportowe  ZBCAN BORCHARD 2014-09-02 16:49:00 2014-09-02 18:49:00 2014-09-02 20:26:00 2014-09-02 22:26:00
Vessel Type: Rybołówstwo  CHORROLL QUATRE 2014-09-01 06:48:00 2014-09-01 08:48:00 2014-09-02 20:20:00 2014-09-02 22:20:00
Vessel Type: Rybołówstwo  DAFRA PRIMERO 2014-09-01 07:22:00 2014-09-01 09:22:00 2014-09-02 20:17:00 2014-09-02 22:17:00

Oczekiwane przybicie


Nazwy statków
Scheduled Arrival (UTC)
Planowane przybicie (wg. czasu lokalnego)
Szacunkowy czas przybicia (UTC)
Szacunkowy czas przybicia (wg. Czasu lokalnego)
Vessel Type: Statki transportowe  LITA 2014-09-04 03:00:00 2014-09-04 05:00:00
Vessel Type: Statki transportowe  PAULA C 2014-09-04 06:00:00 2014-09-04 08:00:00
Vessel Type: Statki transportowe  MEDAL 2014-09-04 08:00:00 2014-09-04 10:00:00
Vessel Type: Statki transportowe  PLANET V 2014-09-05 17:00:00 2014-09-05 19:00:00 2014-09-05 12:46:00 2014-09-05 14:46:00
Vessel Type: Statki transportowe  TANAIS DREAM 2014-09-07 20:00:00 2014-09-07 22:00:00 2014-09-08 10:03:00 2014-09-08 12:03:00
Vessel Type: Tankowce  TOLI 2014-09-08 08:00:00 2014-09-08 10:00:00
Vessel Type: Statki transportowe  WILSON TRENT 2014-09-13 07:00:00 2014-09-13 09:00:00 2014-09-13 21:35:00 2014-09-13 23:35:00

Wind Forecast


    
Czas (UTC)
Szybkość
Direction
Temperature
2014-09-03 03:00:00 3 knots 177° 25°C
2014-09-03 06:00:00 6 knots 227° 25°C
2014-09-03 09:00:00 8 knots 215° 25°C
2014-09-03 12:00:00 11 knots 177° 25°C
2014-09-03 15:00:00 12 knots 173° 26°C
2014-09-03 18:00:00 12 knots 173° 26°C
2014-09-03 21:00:00 10 knots 186° 26°C
2014-09-04 00:00:00 9 knots 179° 26°C
2014-09-04 03:00:00 7 knots 183° 25°C
2014-09-04 06:00:00 7 knots 183° 25°C
2014-09-04 09:00:00 8 knots 175° 25°C
2014-09-04 12:00:00 11 knots 161° 26°C
2014-09-04 15:00:00 10 knots 150° 26°C
2014-09-04 18:00:00 8 knots 147° 26°C
2014-09-04 21:00:00 4 knots 181° 26°C
2014-09-05 00:00:00 3 knots 211° 25°C
2014-09-05 03:00:00 2 knots 270° 25°C